DH9NFM-11 Weather Reports


time (UTC)temp
F
wind
direction
speed
knots
gust
knots
rain 1hr
in
rain 24hr
in
rain mn
in
humidity
%
barometer
mb
20260505172554 64 219 4.3 9.6 0.00 0.02 0.02 77 1002.3
20260505171548 64 52 4.3 9.6 0.00 0.02 0.02 76 1001.3
20260505170543 64 62 4.3 9.6 0.00 0.02 0.02 75 1001.3
20260505165537 64 76 4.3 9.6 0.00 0.02 0.02 75 1001.2
20260505164632 65 115 3.5 13.0 0.00 0.02 0.02 74 1001.4
20260505163626 65 56 3.5 9.6 0.00 0.02 0.02 74 1001.5
20260505162640 65 83 4.3 9.6 0.00 0.02 0.02 73 1001.7
20260505161614 65 78 3.5 12.2 0.00 0.02 0.02 72 1001.9
20260505160608 66 40 4.3 13.0 0.00 0.02 0.02 71 1001.9
20260505152545 67 73 3.5 7.0 0.00 0.02 0.02 68 1002.1
20260505151539 67 81 4.3 9.6 0.00 0.02 0.02 66 1002.1
20260505150634 68 31 3.5 7.8 0.00 0.02 0.02 63 1002.2
20260505140559 69 58 2.6 6.1 0.00 0.02 0.02 58 1002.4
20260505124614 73 97 3.5 9.6 0.00 0.02 0.02 53 1003.2
20260505123608 72 75 5.2 9.6 0.00 0.02 0.02 53 1003.3
20260505122622 73 51 3.5 7.0 0.00 0.02 0.02 52 1003.3
20260505121556 73 337 2.6 6.1 0.00 0.02 0.02 51 1003.5
20260505120550 73 49 2.6 7.8 0.00 0.02 0.02 55 1003.5
20260505115545 73 9 2.6 9.6 0.00 0.02 0.02 55 1003.7
20260505114539 72 64 1.7 6.1 0.00 0.02 0.02 57 1003.8
20260505113633 70 2 2.6 3.5 0.00 0.02 0.02 56 1003.9
20260505112627 70 358 2.6 3.5 0.00 0.02 0.02 56 1004.0
20260505111641 70 69 2.6 5.2 0.00 0.02 0.02 51 1004.0
20260505110615 70 41 3.5 7.0 0.00 0.02 0.02 52 1004.0
20260505101547 73 201 1.7 5.2 0.00 0.02 0.02 50 1004.3
20260505100541 73 38 0.9 3.5 0.00 0.02 0.02 49 1004.5
20260505095536 73 40 1.7 3.5 0.00 0.02 0.02 48 1004.7
20260505094630 73 51 0.9 3.5 0.00 0.02 0.02 49 1004.8
20260505093644 72 71 1.7 5.2 0.00 0.02 0.02 55 1004.8
20260505092619 71 23 0.9 5.2 0.00 0.02 0.02 58 1005.0
20260505091613 70 39 1.7 5.2 0.00 0.02 0.02 61 1005.1
20260505090608 68 54 1.7 3.5 0.00 0.02 0.02 63 1005.1
20260505085622 69 30 0.9 3.5 0.00 0.02 0.02 63 1005.4
20260505084556 67 41 1.7 3.5 0.00 0.02 0.02 67 1005.4
20260505083550 67 63 1.7 5.2 0.00 0.02 0.02 67 1005.4
20260505082545 67 56 1.7 3.5 0.00 0.02 0.02 68 1005.7
20260505081539 67 70 1.7 3.5 0.00 0.02 0.02 68 1005.6
20260505080633 67 65 1.7 3.5 0.00 0.02 0.02 68 1005.6
20260505075627 66 64 1.7 3.5 0.00 0.02 0.02 69 1005.6
20260505074641 65 37 1.7 5.2 0.00 0.02 0.02 73 1005.6
20260505073616 64 31 1.7 3.5 0.00 0.02 0.02 75 1005.7
20260505072650 62 52 0.9 1.7 0.00 0.02 0.02 77 1005.9
20260505071625 61 54 1.7 5.2 0.00 0.02 0.02 79 1005.9
20260505070558 60 51 0.9 3.5 0.00 0.02 0.02 81 1006.0
20260505065553 60 18 0.9 1.7 0.00 0.02 0.02 83 1005.9
20260505064547 59 68 0.9 3.5 0.00 0.02 0.02 84 1005.9
20260505063541 59 62 0.9 3.5 0.00 0.02 0.02 84 1005.8
20260505062635 58 49 0.9 5.2 0.00 0.02 0.02 84 1005.8
20260505061630 58 33 1.7 3.5 0.00 0.02 0.02 86 1005.8
20260505060624 57 28 1.7 5.2 0.00 0.02 0.02 87 1005.9
20260505055658 57 44 1.7 5.2 0.00 0.02 0.02 87 1005.9
20260505054612 57 61 2.6 5.2 0.00 0.02 0.02 88 1005.9
20260505053606 56 76 2.6 5.2 0.00 0.02 0.02 89 1005.9
20260505052621 56 30 1.7 5.2 0.00 0.02 0.02 90 1005.8
20260505051555 55 42 2.6 7.0 0.00 0.02 0.02 90 1005.9
20260505050549 55 48 2.6 7.0 0.00 0.02 0.02 90 1005.9
20260505041621 55 338 1.7 6.1 0.01 0.02 0.02 93 1006.2
20260505040615 55 315 0.9 3.5 0.01 0.02 0.02 93 1006.1
20260505035609 55 0 0.9 3.5 0.01 0.02 0.02 93 1006.2
20260505034604 55 328 0.0 1.7 0.01 0.02 0.02 92 1006.5
20260505033558 55 43 0.9 3.5 0.01 0.02 0.02 91 1006.5
20260505032552 55 0 0.0 1.7 0.01 0.02 0.02 90 1006.9
20260505031546 56 298 0.9 1.7 0.00 0.01 0.01 89 1006.9
20260505030540 56 327 0.9 3.5 0.00 0.01 0.01 90 1006.9
20260505025635 55 268 2.6 3.5 0.00 0.01 0.01 90 1007.3
20260505024629 56 45 0.9 3.5 0.00 0.01 0.01 90 1007.1
20260505023623 56 326 0.0 1.7 0.01 0.01 0.01 91 1007.3
20260505022618 56 301 0.9 1.7 0.01 0.01 0.01 90 1007.7
20260505021611 56 0.0 0.0 0.01 0.01 0.01 90 1007.7
20260505020606 56 0.0 0.0 0.01 0.01 0.01 88 1007.8
20260505015620 57 315 0.0 1.7 0.01 0.01 0.01 87 1007.8
20260505014615 57 309 0.0 1.7 0.01 0.01 0.01 84 1007.7
20260505013549 57 290 1.7 3.5 0.00 0.00 0.00 83 1007.7
20260505012603 58 316 1.7 3.5 0.00 0.00 0.00 80 1007.7
20260505011557 59 357 1.7 3.5 0.00 0.00 0.00 77 1007.6
20260505010632 59 3 2.6 7.8 0.00 0.00 0.00 77 1007.5
20260505005626 59 14 1.7 6.1 0.00 0.00 0.00 76 1007.5
20260505004620 59 307 0.9 1.7 0.00 0.00 0.00 76 1007.6
20260505003614 60 216 0.9 3.5 0.00 0.00 0.00 75 1007.7
20260505002609 60 352 0.9 3.5 0.00 0.00 0.00 75 1007.6
20260505001603 60 299 0.9 3.5 0.00 0.00 0.00 76 1007.5
20260505000557 60 293 0.9 1.7 0.00 0.00 0.00 76 1007.7
20260504235611 60 333 0.9 3.5 0.00 0.00 0.00 76 1007.8
20260504234546 60 40 0.9 3.5 0.00 0.00 0.00 76 1007.9
20260504233540 60 26 0.9 1.7 0.00 0.00 0.00 76 1008.1
20260504232635 60 42 0.9 1.7 0.00 0.00 0.00 75 1008.2
20260504231627 60 34 0.0 1.7 0.00 0.00 0.00 75 1008.4
20260504230621 60 291 0.9 1.7 0.00 0.00 0.00 74 1008.4
20260504225615 61 286 1.7 3.5 0.00 0.00 0.00 74 1008.4
20260504224609 61 36 0.9 3.5 0.00 0.00 0.00 74 1008.2
20260504223624 61 21 0.9 3.5 0.00 0.00 0.00 74 1008.3
20260504222558 61 304 0.0 1.7 0.00 0.00 0.00 75 1008.4
20260504221552 61 310 0.9 1.7 0.00 0.00 0.00 74 1008.5
20260504220546 61 270 0.0 1.7 0.00 0.00 0.00 74 1008.7
20260504215540 61 270 0.9 1.7 0.00 0.00 0.00 73 1008.7
20260504214634 62 281 0.9 3.5 0.00 0.00 0.00 72 1008.6
20260504213648 62 46 0.9 5.2 0.00 0.00 0.00 71 1008.5
20260504212623 62 317 0.9 3.5 0.00 0.00 0.00 71 1008.6
20260504211617 63 251 0.9 5.2 0.00 0.00 0.00 70 1008.7
20260504210612 62 312 0.9 3.5 0.00 0.00 0.00 70 1008.6